METEOR 2-11 DEB

Satellite information

Favourite Embed

Satellite Type and Status

DEBRISIN ORBIT

Key statistics

Satellite METEOR 2-11 DEB at a glance.

Uptime

15090

Days in orbit

Revolutions

≈ 14.0

Per day

Orbit

LEO

Low Earth Orbit

Inclination

82.5

Latest

Satellite identification and parameters

Extended collection of information and parameters for METEOR 2-11 DEB.

Object identification

Identified? True

Debris? True

Object name: METEOR 2-11 DEB

International designator: 1984-072F

Object number (NORAD): 40704

Object ID (CCSDS): 40704

Country: COMMONWEALTH OF INDEPENDENT STATES (CIS)

Current information (Y/N): Y

RCS size: SMALL

Orbital parameters

Period: 102.997 minutes

Inclination: 82.5191 deg

SMA: 7278.546 km

Apoapsis: 922.16 km

Periapsis: 878.662 km

RAAN: 202.5338 deg

Eccentricy: 0.00298812

Argument of periapsis: 314.8015 deg

Mean anomaly: 45.0723 deg

Mean motion: 13.98092211 rev/day

Mean motion (dot): 0.00003917 rev/day2

B* drag term: 0.0027359006 1/REarth

Two-line elements (TLE)

Creation date: Oct. 19, 2025, 10:30 a.m.

Reference frame: TEME

Reference center: EARTH

Epoch: Oct. 19, 2025, 12:48 a.m. UTC

TLE line 0: 0 METEOR 2-11 DEB

TLE line 1: 1 40704U 84072F 25292.03353722 .00003917 00000-0 27359-2 0 9999

TLE line 2: 2 40704 82.5191 202.5338 0029881 314.8015 45.0723 13.98092211533677

Live tracking on map

Real-time ground track for satellite METEOR 2-11 DEB.

In-orbit conjunctions

A list of the most updated potential collisions computed for object METEOR 2-11 DEB.

Target Orbit TCA Probability of collision Miss distance Type
SL-3 R/B LEO 2025-06-18 17:58:58 0.0001973746 242.0 (m) ROCKET BODY

Associated space launch

Second generation soviet meteorological satellite

METEOR 2-11 DEB was lifted into orbit during the mission ‘Tsiklon-3 | Meteor-2 11’, on board a Tsiklon-3 space rocket.

The launch took place on July 5, 1984, 3:35 a.m. from 32/2.

For more information about the launch, click the button.

Launch to space Tsiklon-3 | Meteor-2 11
Tsiklon-3 | Meteor-2 11

Agency: N/A

Status: Launch Successful

Launch date: July 5, 1984, 3:35 a.m. UTC

Rocket: Tsiklon-3

Launch pad: 32/2

Location: Plesetsk Cosmodrome, Russian Federation

...

Latest news about this satellite

There are no fresh news available about this satellite. Check back as we update our databases every day.


Newsletter sign-up

Weekly statistics, charts and insights to help you stay on top of the space industry.